SCP
0 0 0 1 1 1 1 1 1 1 1 0 0 0 0 0 0 1 1 1 1 1 0 1 1 1 0 1 1 1 1 1 0 0 0 0 1 1 1 1 1 0 1
0 0 0 1 1 1 1 1 1 0 1 1 0 0 0 0 1 1 1 1 1 1 1 1 1 1 1 1 1 1 0 0 0 0 0 0 0 1 1 1 1 0 1
0 0 0 0 1 1 1 1 1 0 1 1 0 0 0 1 1 1 1 1 1 1 1 1 1 1 1 1 1 1 0 0 0 0 0 0 0 1 1 1 1 0 0
0 0 0 0 1 1 1 1 1 1 1 1 1 1 1 1 1 1 1 1 1 1 1 1 1 1 1 1 1 1 0 0 0 0 0 0 0 0 0 0 0 0 0
0 0 0 0 0 1 1 1 1 1 1 1 1 1 1 1 1 1 1 1 1 1 1 1 1 1 1 1 1 1 1 0 0 0 0 0 0 1 1 0 0 0 0
0 0 0 0 0 0 1 1 1 1 1 1 1 1 1 1 1 1 1 1 1 1 1 1 1 1 1 1 1 1 1 0 0 0 0 0 1 1 1 1 1 1 1
0 0 0 1 1 0 0 1 1 1 1 1 1 1 1 1 1 1 1 1 1 1 1 1 1 1 1 1 1 1 0 0 0 0 0 0 1 1 1 1 1 1 1
0 0 0 1 1 1 0 1 1 1 1 1 1 1 1 1 1 1 1 1 1 0 0 1 1 1 1 1 1 1 0 0 0 0 0 0 1 1 1 1 1 1 1
0 0 0 1 1 1 1 1 1 1 1 1 1 1 1 1 1 1 1 1 1 0 0 1 1 1 1 1 1 1 0 0 0 0 0 0 0 1 1 1 1 1 1
0 0 0 0 1 1 1 1 1 1 1 1 1 1 1 1 1 1 1 1 1 0 0 0 1 0 0 0 0 0 0 0 0 0 0 0 0 1 1 1 1 1 1
0 1 1 1 0 0 0 1 1 1 1 1 1 1 1 1 0 0 1 1 1 0 0 0 0 0 0 0 0 0 0 0 0 0 0 0 0 1 1 1 1 0 0
0 1 1 1 0 0 1 1 1 1 1 0 0 0 0 0 0 0 0 1 0 0 0 0 0 0 0 0 0 0 0 0 0 0 0 0 1 1 1 1 1 1 1
0 0 1 1 0 1 1 1 1 0 0 0 0 0 0 0 0 0 0 0 0 0 0 0 0 0 0 0 0 0 0 0 0 0 0 0 1 1 1 1 1 1 1
0 0 0 0 0 0 0 0 0 0 0 0 0 0 0 0 0 0 0 0 0 0 0 0 0 0 0 0 0 0 0 0 0 0 0 0 0 1 1 1 1 1 1
1 1 0 0 0 0 0 0 0 0 0 0 0 0 0 0 0 0 0 0 0 0 0 0 0 0 0 0 0 0 0 0 0 0 0 0 1 1 1 1 1 1 1
1 1 1 0 0 0 0 0 0 0 0 0 0 0 0 0 0 0 0 0 0 0 0 0 0 0 0 0 0 0 0 0 0 0 0 0 0 0 0 0 0 0 0
1 1 1 1 0 0 0 0 0 0 0 0 0 0 0 0 0 0 0 0 0 0 0 0 0 0 0 0 0 0 0 0 0 0 0 0 0 0 0 0 0 0 0
1 1 1 1 1 0 0 0 0 0 0 0 0 0 0 0 0 0 0 0 0 0 0 0 0 0 0 0 0 0 0 0 0 0 0 0 0 0 0 0 0 0 0
1 1 1 1 1 0 0 0 0 0 0 0 0 0 0 0 0 0 0 0 0 0 0 0 0 0 0 0 0 0 0 0 0 0 0 0 0 0 0 0 0 0 0
1 1 1 1 1 0 0 0 0 0 0 0 0 0 0 0 0 0 0 0 0 0 0 0 0 0 0 0 0 0 0 0 0 0 0 0 0 0 0 0 0 0 0
1 1 1 1 1 0 0 0 0 0 0 0 0 0 0 0 0 0 0 0 0 0 0 0 0 0 0 0 0 0 0 0 0 0 0 0 0 0 0 0 0 0 0
1 1 0 0 0 0 0 0 0 0 0 0 0 0 0 0 0 0 0 0 0 0 0 0 0 0 0 0 0 0 0 0 0 0 0 0 0 0 0 0 0 0 0
1 1 1 0 0 0 0 0 0 0 0 0 0 0 0 0 0 0 0 0 0 0 0 0 0 0 0 0 0 0 0 0 0 0 0 0 0 0 0 0 0 0 0
1 1 1 1 0 0 0 0 0 0 0 0 0 0 0 0 0 0 0 0 0 0 0 0 0 0 0 0 0 0 0 0 0 0 0 0 0 0 0 0 0 0 0
1 1 1 1 1 0 0 0 0 0 0 0 0 0 0 0 0 0 0 0 0 0 0 0 0 0 0 0 0 0 0 0 0 0 0 0 0 0 0 0 0 0 0
1 1 1 1 1 0 0 0 0 0 0 0 0 0 0 0 0 0 0 0 0 0 0 0 0 0 0 0 0 0 0 0 0 0 0 0 0 0 0 0 0 0 0
Wind_Speed
1 2 1 4 5 5 6 6 7 8 8 9 9 9 9 9 9 9 9 9 9 9 9 8 8 8 8 8 8 8 7 7 7 7 7 7 6 6 5 5 4 2 4
1 1 2 4 5 5 6 6 7 7 8 8 9 9 9 9 9 9 9 8 8 8 8 8 8 8 8 8 8 7 7 8 7 7 7 6 6 6 6 5 4 2 4
2 1 2 4 5 5 5 6 7 7 7 8 8 9 9 8 8 8 8 8 8 8 8 8 8 8 8 8 7 7 8 8 8 8 7 4 4 6 6 6 5 5 5
3 2 2 4 5 5 6 6 7 7 7 7 7 8 8 8 8 7 7 7 8 8 8 8 8 8 8 8 7 7 8 8 9 8 5 4 3 6 7 7 6 6 6
2 2 2 4 5 6 6 7 7 7 7 7 7 8 8 7 7 7 7 7 7 8 8 8 7 7 7 7 7 8 8 9 9 7 4 4 3 6 7 7 7 7 6
2 2 2 5 6 6 6 6 7 7 7 7 7 8 7 7 7 7 7 7 7 8 8 8 7 7 8 8 8 8 9 9 8 5 4 4 3 6 8 7 7 7 7
2 2 2 4 5 6 6 6 7 7 7 7 8 8 8 7 7 7 7 7 7 7 7 7 8 8 8 8 8 9 9 9 6 4 4 3 4 7 7 7 7 7 7
2 2 2 4 4 5 6 6 7 7 7 7 7 7 7 7 7 7 7 7 8 7 7 8 8 8 8 9 9 9 9 8 6 5 4 3 6 8 7 7 7 7 7
3 3 3 3 3 4 4 5 6 7 7 7 7 7 7 7 6 6 6 6 7 7 7 7 7 8 8 9 9 10 10 10 5 3 4 3 6 8 8 8 8 8 8
3 2 2 3 3 3 2 3 5 6 6 6 6 6 7 6 6 6 5 6 7 7 7 8 8 8 9 9 10 11 10 8 5 4 3 4 8 9 9 8 8 8 8
1 1 1 2 2 2 2 2 3 5 5 6 5 6 6 4 4 3 5 7 7 8 9 9 10 11 11 10 11 11 8 3 4 3 3 7 9 10 10 9 8 8 8
1 1 0 1 1 2 2 2 2 3 3 3 3 3 3 3 3 4 6 7 8 9 9 10 11 10 8 5 7 8 4 5 4 3 4 9 9 10 10 10 9 9 9
3 2 1 1 1 1 1 1 2 2 2 2 2 2 2 2 2 3 3 4 5 6 5 6 7 4 4 4 4 4 4 4 3 3 5 10 10 11 11 11 10 10 9
2 3 2 1 1 1 1 1 1 1 1 1 1 2 2 2 2 2 2 2 3 2 3 3 3 4 5 5 5 5 6 4 4 3 5 12 12 12 12 12 12 11 10
3 3 2 2 2 1 1 1 2 1 1 1 1 1 2 2 2 2 2 2 3 2 3 3 4 5 5 5 5 6 5 5 5 5 5 12 13 13 13 13 13 13 12
4 3 2 3 3 2 2 1 1 1 1 1 1 1 2 2 2 2 2 2 2 2 3 3 4 4 4 4 5 5 5 5 5 5 5 7 13 13 13 13 13 13 12
4 3 3 4 3 3 2 2 1 1 1 1 1 2 2 2 3 2 2 2 2 2 3 4 4 4 4 5 5 5 4 5 5 5 5 5 6 11 14 14 14 13 13
4 4 3 3 4 3 2 2 2 1 2 1 1 1 2 3 3 3 3 2 2 2 3 3 3 4 4 4 4 4 4 4 5 5 5 5 5 5 9 14 14 14 13
6 5 4 3 4 3 3 3 3 2 2 1 1 1 2 3 3 3 2 2 2 3 3 3 3 3 4 4 4 4 4 4 4 5 5 5 5 5 5 9 13 14 14
5 5 5 4 3 4 3 3 2 3 2 2 2 1 2 2 3 3 3 3 3 3 3 3 4 4 3 3 5 5 4 4 4 4 4 4 5 6 6 6 6 8 14
5 5 5 5 4 4 2 2 2 1 1 1 1 2 2 3 3 3 3 3 3 3 3 4 4 4 3 2 3 3 4 4 4 4 4 4 5 5 5 6 5 5 6
6 6 6 6 5 4 3 2 2 2 1 1 1 2 2 2 2 3 4 3 3 3 4 3 3 3 2 2 2 2 2 3 4 4 4 4 5 4 5 6 6 6 5
6 7 6 6 5 4 3 3 3 3 2 2 1 1 1 2 2 3 4 3 3 3 3 2 3 3 2 1 1 3 2 1 1 3 4 4 4 4 4 4 6 6 6
7 6 6 5 5 4 3 4 4 3 2 1 1 1 1 2 2 2 3 4 3 3 3 2 2 2 3 1 1 2 2 3 2 1 3 3 4 4 5 5 5 5 6
6 6 5 6 5 4 4 4 4 3 2 1 1 2 2 2 2 2 3 3 3 2 2 2 2 2 2 2 2 1 2 2 2 3 1 2 3 3 3 4 4 4 5
5 5 6 6 4 4 4 4 4 4 4 3 2 2 1 1 1 2 2 3 3 2 2 2 2 3 2 2 2 2 2 2 2 2 2 0 1 2 3 3 4 4 4
Wind_Direction
249 253 196 116 113 108 104 101 100 98 102 102 103 101 100 98 97 93 91 89 85 83 80 80 80 79 79 80 78 76 76 81 80 79 78 76 73 73 74 74 72 62 66
180 181 142 121 115 113 109 107 105 103 104 104 105 103 101 98 96 93 91 87 83 80 77 77 76 75 76 77 77 78 76 75 75 74 70 63 63 66 69 69 75 71 67
121 118 134 119 112 112 111 111 110 108 106 107 106 105 101 98 95 92 89 86 82 78 76 74 75 74 74 76 77 77 76 72 72 69 61 43 41 61 63 62 67 68 65
127 112 116 115 112 111 109 109 110 109 104 105 105 102 97 96 94 92 88 84 79 75 74 72 74 77 75 75 74 77 77 73 70 65 50 35 31 60 59 59 61 61 59
111 96 113 116 112 106 102 105 106 106 105 105 107 103 98 95 95 92 86 83 78 74 72 71 70 74 75 77 77 79 81 73 67 58 44 33 26 54 58 59 57 54 53
105 83 108 116 112 105 103 103 103 103 102 101 104 101 98 94 93 91 87 85 81 75 71 71 71 71 72 75 80 80 78 73 63 52 40 29 27 52 57 57 56 52 49
105 78 96 112 111 106 103 103 103 102 99 100 102 99 95 91 89 87 87 86 83 79 74 73 70 70 71 75 80 80 78 76 67 53 40 28 35 51 57 55 54 50 46
99 70 63 90 103 107 107 105 104 104 99 97 98 95 93 89 86 86 83 82 81 76 74 73 71 70 71 75 77 80 77 71 64 53 43 29 46 54 57 53 48 47 43
71 62 37 38 58 81 96 104 104 103 97 97 98 93 89 86 83 85 81 79 78 77 76 77 73 74 79 80 81 82 79 71 55 38 43 31 49 54 54 51 46 45 41
57 54 43 36 41 43 42 84 97 100 99 94 90 87 82 75 70 69 70 73 75 75 75 76 75 77 80 82 83 81 74 64 47 37 21 37 51 52 51 49 46 44 38
56 25 33 36 41 45 35 66 72 80 80 78 72 69 63 48 41 41 54 64 71 74 73 72 71 72 72 72 75 74 65 47 42 32 22 46 51 51 49 47 44 39 35
219 258 326 34 45 43 54 58 47 52 58 59 57 54 46 44 38 42 41 58 61 64 66 68 67 68 66 58 64 65 51 45 38 24 36 48 52 52 49 45 42 37 34
209 225 212 190 67 59 55 61 53 53 53 51 61 70 59 48 41 39 38 42 45 53 53 58 58 57 63 67 65 60 52 46 33 22 32 47 49 51 49 45 40 37 34
198 219 208 169 127 86 85 79 73 63 60 52 61 81 77 62 50 50 49 47 50 52 61 61 64 62 68 69 72 67 56 48 35 24 30 44 45 47 48 46 44 41 38
197 213 198 168 161 153 118 102 93 68 67 70 65 70 90 89 76 71 60 53 54 55 65 70 70 67 68 68 68 68 58 49 40 35 26 40 44 44 45 47 45 43 41
200 203 175 167 166 151 136 123 105 82 68 76 74 84 106 106 103 92 76 62 59 65 71 78 80 76 69 68 64 61 56 48 40 38 33 32 39 41 42 42 42 43 43
193 185 171 172 153 149 146 137 117 110 111 95 78 81 102 114 114 103 90 78 74 77 81 80 77 73 72 67 58 54 51 47 43 38 34 31 27 34 36 39 40 40 40
179 174 175 168 145 145 133 122 112 100 93 87 80 81 100 120 123 109 100 89 89 88 89 89 81 77 70 68 60 48 45 44 42 40 37 33 30 25 24 33 36 36 36
178 169 161 148 139 137 119 103 96 88 79 80 87 86 98 108 111 111 108 103 95 92 89 97 81 87 85 78 75 57 46 45 36 40 35 32 31 29 21 23 29 31 32
169 158 152 142 133 124 105 90 77 68 58 59 68 78 97 104 110 113 109 105 103 101 88 89 92 77 83 84 78 62 45 44 42 36 30 29 31 31 27 26 21 20 27
161 159 159 155 152 138 126 122 111 99 64 51 49 70 95 110 118 117 113 105 104 108 113 113 103 90 75 80 81 55 33 40 45 34 28 32 29 24 27 28 24 19 15
175 172 169 169 165 164 156 146 137 127 109 89 43 61 74 103 122 131 122 119 116 110 108 111 113 105 79 60 101 89 39 14 16 26 27 36 27 20 24 27 26 23 17
180 180 175 172 163 160 150 119 95 74 58 48 41 43 40 84 98 113 127 128 127 123 129 131 131 126 127 57 79 129 131 164 342 2 23 28 23 24 14 16 27 22 18
187 177 167 162 155 152 148 143 147 145 151 176 162 105 61 70 91 109 125 129 130 125 132 145 131 125 129 128 67 62 111 144 131 37 359 9 21 28 18 20 18 16 16
174 165 159 151 152 155 154 155 152 150 155 134 113 95 73 56 74 102 116 120 124 126 136 130 121 119 124 140 141 125 93 74 92 124 71 350 4 8 12 15 16 13 12
157 156 154 152 157 158 154 156 162 163 157 143 140 132 107 71 60 90 113 119 127 129 139 140 130 125 124 123 127 133 141 140 145 130 134 93 359 339 356 5 15 9 9